Location: Lake Arresoe
(56.0000°N, 12.5000°E)
Time: 05:42:08
(UTC+01:00)

N. Korean satellite - Visible Passes

Search period start: 25 January 2022 00:00
Search period end: 04 February 2022 00:00
Orbit: 447 x 491 km, 97.3° (Epoch: 24 January)

Date Brightness Start Highest point End Pass type
(mag) Time Alt. Az. Time Alt. Az. Time Alt. Az.
25 Jan 10.0 04:09:17 10° ENE 04:10:13 11° E 04:11:09 10° E visible
25 Jan 6.6 05:40:19 10° NNE 05:43:59 83° ESE 05:46:52 16° SSW visible
25 Jan 8.3 07:14:31 10° NNW 07:16:38 15° WNW 07:18:45 10° W visible
25 Jan 10.2 17:57:49 10° W 17:58:25 10° W 17:59:02 10° WNW visible
26 Jan 7.8 05:11:14 10° NNE 05:14:43 41° E 05:17:47 12° SSE visible
26 Jan 7.6 06:44:41 10° N 06:47:42 25° WNW 06:50:43 10° WSW visible
26 Jan 9.6 17:26:16 10° SW 17:28:52 19° W 17:31:32 10° NW visible
27 Jan 9.0 04:42:24 10° NE 04:45:19 22° E 04:48:13 10° SE visible
27 Jan 6.8 06:15:10 10° N 06:18:40 44° WNW 06:22:08 10° SW visible
28 Jan 9.9 04:14:16 10° ENE 04:15:48 12° E 04:17:19 10° ESE visible
28 Jan 6.5 05:45:50 10° NNE 05:49:30 87° WNW 05:53:08 10° SSW visible
28 Jan 8.4 07:20:13 10° NNW 07:22:05 14° NW 07:23:56 10° W visible
29 Jan 7.6 05:16:40 10° NNE 05:20:12 47° E 05:23:44 10° S visible
29 Jan 7.8 06:50:15 10° N 06:53:08 22° WNW 06:56:00 10° WSW visible
29 Jan 9.7 17:31:56 10° SW 17:34:22 17° W 17:36:51 10° NW visible
30 Jan 8.9 04:47:44 10° NE 04:50:48 25° E 04:53:50 10° SSE visible
30 Jan 7.0 06:20:38 10° N 06:24:04 39° WNW 06:27:28 10° SW visible
31 Jan 9.8 04:19:20 10° NE 04:21:15 14° E 04:23:10 10° ESE visible
31 Jan 6.4 05:51:14 10° NNE 05:54:53 77° WNW 05:58:31 10° SSW visible
31 Jan 8.5 07:25:51 10° NNW 07:27:24 12° NW 07:28:57 10° W visible
01 Feb 7.3 05:21:59 10° NNE 05:25:34 53° E 05:29:07 10° S visible
01 Feb 7.9 06:55:41 10° N 06:58:26 20° WNW 07:01:10 10° WSW visible
01 Feb 9.8 17:37:31 10° SW 17:39:46 16° W 17:42:01 10° NW visible
02 Feb 8.7 04:52:58 10° NE 04:56:09 27° E 04:59:18 10° SSE visible
02 Feb 7.2 06:26:00 10° N 06:29:21 35° WNW 06:32:40 10° SW visible
03 Feb 9.6 04:24:23 10° NE 04:26:35 15° E 04:28:46 10° SE visible
03 Feb 6.5 05:56:31 10° N 06:00:09 68° WNW 06:03:45 10° SSW visible
